Weather in Machakos

Kenya     1°31′09″S   37°16′08″E
temp.,
°C
wind,
m/s
gust,
m/s
humid.,
%
clouds,
%
prec.,
mm/h
press.,
hPa
HPBL,
m
17 september, fri
fri1700:00+15se119060 0.0 101620
03:00+14sse119681 0.0 101415
06:00+13sw119674 0.0 101610
09:00+21ssw11591 0.0 1015581
12:00+29se123644 0.0 10112108
15:00+25e4544100 0.2 1008929
18:00+23ese345056 0.0 1010554
21:00+20e2761100 0.2 1013408
18 september, sat
sat1800:00+17e236739 0.0 1015100
03:00+14se11857 0.0 101414
06:00+14wsw11858 0.0 101611
09:00+22e115190 0.0 1016693
12:00+26ene2438100 0.0 10132189
15:00+21ne2462100 0.6 1012217
18:00+18e2577100 0.9 1013220
21:00+19ese4106641 1.9 1015746
19 september, sun
sun1900:00+15e2278100 0.0 101747
03:00+14wnw1184100 0.0 101611
06:00+13w1185100 0.0 101810
09:00+20se1252100 0.0 1018728
12:00+26se432782 0.0 10152056
15:00+27se4325100 0.0 10112707
18:00+24ese48298 0.0 1012646
21:00+18ese410457 0.0 1016564
20 september, mon
mon2000:00+15e12660 0.0 101841
03:00+13ne11795 0.0 101715
06:00+12nw01885 0.0 101810
09:00+19sse22617 0.0 1018745
12:00+26se223583 0.0 10141861
15:00+25ese5336100 0.0 10102029
18:00+23ese4742100 0.0 1012763
21:00+18ese486736 0.0 1017697
21 september, tue
tue2100:00+15ese248132 0.0 1017330
03:00+15e1285100 0.0 1016208
06:00+13ssw009322 0.0 101810
09:00+19se116263 0.0 1018764
12:00+26ese224055 0.0 10141795
15:00+26ese6438100 0.1 10102047
18:00+23ese5743100 0.0 10121210
21:00+17e597472 0.0 1017698